Dewpoint
-2 -3 -4 -5 -6 -6 -6 -5 -5 -4 -4 -5 -6 -7 -10 -13 -14 -11 -9 -5 -5 -2 -4 -4 -4 -0 6 7 9 11 12 14 14 13 11 11 11 12 13 14 14 14 14 14 14
0 0 -1 -2 -3 -5 -6 -7 -7 -6 -5 -4 -5 -6 -9 -13 -16 -14 -11 -6 -5 -5 -5 -4 -4 -3 3 6 10 10 11 10 11 12 12 10 10 12 13 14 14 15 14 14 15
-2 -1 -0 -0 -1 -2 -3 -5 -7 -7 -6 -5 -5 -5 -8 -13 -17 -17 -14 -10 -6 -5 -4 -4 -4 -2 2 3 6 10 8 7 5 9 11 10 11 12 12 14 13 14 15 16 16
-0 -1 -2 -3 -2 -1 -1 -3 -5 -8 -7 -6 -5 -5 -7 -11 -6 -1 -4 -12 -6 -5 -5 -4 -4 3 3 3 3 4 5 7 7 10 11 11 12 12 12 11 11 13 13 14 16
-1 -2 -2 -2 -3 -3 -2 -2 -3 -7 -8 -7 -5 -5 -6 -12 -10 -5 -6 -11 -7 -5 -5 -4 -3 3 3 2 1 2 -1 -2 9 9 11 11 11 11 12 12 11 12 13 15 16
1 -0 -2 -4 -3 -3 -4 -3 -2 -5 -8 -8 -7 -5 -5 -7 -14 -6 -6 -10 -6 -5 -5 -3 -2 -1 -1 1 1 -2 -2 -1 8 11 11 12 11 12 12 13 12 13 14 15 14
2 1 -1 -2 -5 -4 -5 -5 -2 -5 -8 -8 -7 -5 -5 -12 -11 -3 -4 -5 -7 -6 -4 -3 -4 -4 0 0 -1 -3 -2 4 8 9 10 11 12 10 12 13 14 14 15 15 15
3 2 0 -2 -4 -5 -4 -6 -3 -6 -8 -8 -8 -5 -7 -13 -8 -3 -1 -2 -5 -6 -4 -4 -4 -4 -1 -2 -4 -2 2 3 2 8 9 9 10 9 12 13 14 14 15 15 15
2 2 2 -2 -4 -5 -5 -6 -3 -7 -6 -6 -6 -5 -6 -11 -9 -4 -2 1 -5 -5 -5 -5 -4 -3 -4 -3 -1 -1 2 2 1 3 6 7 6 10 14 14 13 14 15 15 15
2 1 1 -2 -4 -5 -5 -5 -5 -5 -4 -5 -5 -1 -7 -5 -12 -5 -3 0 -10 -5 -6 -4 -3 -1 -2 -0 2 0 -0 -1 -0 -1 -2 -1 4 3 13 14 13 14 14 15 15
2 2 1 -1 -5 -4 -5 -3 -1 3 1 -3 -5 -4 -2 -1 -6 -6 -3 -3 -7 -6 -4 -3 -1 0 0 -1 -2 -2 -1 -0 -1 -3 -2 -1 1 4 7 13 13 14 14 14 14
2 1 1 0 -5 -5 -5 -3 -0 2 1 -1 0 0 -3 -1 -1 -4 -5 -3 -0 -3 -4 -3 -1 -1 -2 -2 -2 -2 -2 -1 -2 -3 -5 -3 2 3 9 11 12 13 14 14 14
2 1 1 0 -5 -5 -4 -4 -1 -1 -1 -0 0 -0 -0 -0 0 -2 -4 -4 -2 1 -3 -3 -5 -4 -3 -3 -3 -3 -3 -2 -3 -4 -3 3 4 5 2 9 10 11 12 13 13
2 1 1 -0 -1 0 -0 -1 -0 1 2 -0 1 2 0 0 -0 -1 -4 -4 -3 -1 -1 -1 -4 -5 -5 -5 -5 -5 -7 -5 -4 -3 -2 -2 -2 -2 -0 -0 5 7 11 12 13
2 0 0 -0 -5 1 -0 -1 1 1 3 -0 1 1 1 -0 -4 -2 -4 -4 -2 -0 -2 -2 -4 -6 -4 -6 -7 -7 -7 -7 -6 -3 -2 -3 -3 -5 -2 -2 -2 -0 5 8 11
2 -0 -1 -3 -6 1 -1 -0 1 2 5 2 2 1 1 -1 -4 -5 -5 -4 -2 -3 -4 -2 -4 -7 -7 -8 -8 -8 -7 -6 -5 -3 -3 -5 -4 -5 -4 -2 -3 -1 2 9 11
1 -1 -2 -5 -5 0 -1 0 1 2 1 1 0 0 -1 -1 -2 -5 -6 -4 0 2 1 -2 -2 -4 -7 -5 -7 -7 -6 -3 -3 -3 -4 -4 -3 -4 -5 -5 -5 -4 -4 6 10
0 -1 -3 -5 -2 -0 -2 1 3 2 1 -0 -0 -2 1 -2 -2 -3 -5 -5 -3 -3 -2 -1 -1 -4 -6 -4 -4 -5 -7 -4 1 -2 -2 -3 -3 -6 -6 -6 -1 0 -3 4 9
-0 2 2 -0 -0 -1 -1 1 -0 2 1 2 -1 0 0 -2 -2 -2 -4 -5 -5 -3 0 -0 -0 -5 -6 -6 -6 -6 -4 -8 -5 -5 -3 -3 -3 -6 -5 -2 -1 3 3 7 9
0 3 0 -0 -1 -1 0 1 2 1 1 1 3 0 1 -0 -1 -0 -0 -2 -3 -4 -4 -1 1 -3 -4 -6 -6 -6 -7 -4 -3 1 3 -1 1 -1 0 -0 2 0 6 6 9
1 4 -1 -0 -0 -1 -0 0 1 0 1 2 3 3 1 -0 -1 -1 -1 -0 2 -2 -4 -3 -2 -1 -3 -2 -2 -4 -3 -3 -3 -2 1 0 -1 -1 2 0 2 1 -1 4 9
3 5 -0 -0 2 2 3 2 1 1 1 1 1 1 2 -0 1 -0 0 2 2 -0 -2 -4 -3 0 -0 -3 -5 -5 -3 -3 -0 2 -0 -0 -1 -4 -2 0 1 1 3 -0 -1
4 4 1 1 4 3 2 1 1 0 0 1 2 2 1 2 3 2 3 3 2 2 3 -2 -1 3 2 -1 -2 -2 -3 -3 -3 -2 4 1 -0 -2 -1 2 2 2 1 -0 -1
3 4 3 1 2 2 3 2 2 -0 0 -0 1 2 3 4 4 5 4 2 1 1 3 3 -1 2 3 3 -0 1 -0 -3 -3 0 1 -1 -1 -1 -1 2 2 2 1 -1 0
2 3 2 3 2 3 2 2 2 2 0 -0 1 1 3 5 4 4 2 1 1 1 2 2 5 2 2 2 3 2 1 0 -0 -1 1 -0 0 -2 1 4 3 5 5 2 1
2 3 2 3 3 3 2 3 2 1 1 0 1 0 1 2 3 3 1 2 2 2 2 1 5 5 5 3 4 4 3 2 0 -1 0 1 2 0 8 10 10 12 11 10 8
1 2 2 3 3 3 4 3 2 1 0 1 1 1 1 1 0 1 1 0 -0 1 1 2 3 6 7 4 4 5 4 4 2 2 2 3 2 3 11 12 12 13 13 14 14
Wind_Speed
8 8 7 7 8 8 8 8 8 8 7 7 7 7 7 7 10 13 15 8 10 6 4 0 2 2 4 4 3 2 1 1 1 4 2 3 3 5 4 7 4 3 2 3 20
9 9 9 9 9 9 9 9 9 8 7 7 7 7 7 7 9 15 11 10 9 9 5 3 2 3 3 3 2 2 1 2 3 3 3 3 5 7 5 6 5 3 4 9 22
10 10 9 10 10 9 9 9 8 8 7 7 7 7 6 6 5 3 9 15 11 10 5 2 1 1 2 3 1 1 2 4 6 9 7 3 4 6 5 5 8 9 13 19 22
12 11 10 10 10 10 10 9 8 8 7 6 6 6 6 3 4 3 6 15 16 12 9 3 0 1 2 4 2 4 7 7 7 4 5 7 3 5 11 3 2 8 14 20 22
13 12 12 12 11 11 10 10 9 8 7 6 6 5 5 3 3 3 4 15 18 15 10 6 2 2 2 4 7 3 8 10 10 10 8 6 8 6 10 9 6 12 18 19 19
15 14 13 13 12 11 11 10 9 8 6 6 6 5 4 3 4 1 4 12 17 15 11 7 2 2 1 2 3 8 14 14 5 2 5 6 5 5 4 11 12 17 20 19 19
17 16 15 14 13 12 11 9 8 8 6 6 6 5 8 7 6 6 7 10 13 14 10 7 4 1 1 5 6 7 7 6 3 2 3 2 7 10 4 12 16 18 18 18 18
20 18 17 16 14 12 10 8 7 7 6 5 5 5 5 5 10 8 7 6 9 12 9 5 4 2 2 4 4 4 1 4 2 5 4 2 11 5 6 16 18 18 18 18 20
22 20 19 18 14 11 9 6 6 5 4 4 4 4 4 4 11 11 8 3 4 10 8 7 4 2 0 2 3 4 4 4 6 5 1 2 14 2 8 15 16 19 19 19 18
23 22 20 18 14 11 7 5 4 3 3 3 5 3 2 3 9 12 11 5 4 13 8 4 2 3 2 2 6 4 5 5 8 4 11 9 16 12 11 15 18 19 19 19 20
24 23 21 18 14 9 5 3 2 3 7 5 2 1 3 5 8 12 13 8 8 5 5 2 6 13 8 2 2 2 7 11 14 7 6 10 13 15 10 16 17 20 22 23 24
25 23 21 19 14 7 3 3 3 1 5 8 15 14 7 5 2 7 13 8 4 4 3 4 13 6 4 5 3 4 10 13 11 2 8 13 15 14 8 14 25 25 26 27 22
26 24 20 18 12 2 4 4 2 4 2 3 4 8 12 11 4 9 16 9 4 5 4 6 1 6 7 5 6 8 10 7 9 14 2 7 8 6 9 15 16 22 24 25 26
27 25 19 16 3 5 5 1 4 4 2 2 1 1 8 6 4 9 17 9 2 8 6 6 4 7 5 6 6 8 8 9 9 6 5 6 9 13 6 8 10 17 23 26 27
27 25 18 11 5 7 3 1 2 2 1 2 3 4 8 6 4 6 18 11 7 5 5 3 4 4 8 13 10 4 4 7 7 5 3 2 4 6 4 5 3 10 18 25 26
27 24 16 8 6 9 3 2 1 3 2 2 4 4 6 2 2 5 7 5 4 3 3 8 2 4 3 4 12 1 6 0 1 2 5 1 3 9 4 2 7 3 5 18 23
26 19 9 2 7 11 5 4 2 1 2 2 1 4 8 5 3 4 10 10 6 4 7 7 16 10 11 8 6 5 5 3 4 3 3 2 5 11 15 13 12 18 9 12 20
24 9 2 5 12 9 7 1 0 1 3 2 2 2 7 8 5 4 10 9 6 4 1 4 1 6 7 16 6 8 7 4 3 3 7 3 6 5 6 18 14 12 7 9 19
17 3 4 9 9 8 4 1 0 1 3 6 1 1 4 4 3 4 8 9 9 15 8 4 4 2 8 5 10 6 7 4 6 1 5 3 6 13 8 9 9 4 6 12 19
7 7 6 11 6 6 2 1 2 3 4 2 2 0 4 3 6 6 7 1 4 12 20 3 7 3 1 5 3 5 9 3 3 5 6 3 4 7 11 13 13 8 3 10 14
2 4 6 9 5 2 1 2 4 4 4 2 1 2 2 1 3 4 5 2 3 1 13 5 5 3 4 7 9 5 5 2 2 3 6 5 5 4 8 10 13 13 11 5 11
3 2 7 3 2 2 2 1 4 4 7 2 1 2 2 3 2 2 2 1 8 3 6 6 3 5 10 3 0 3 5 8 6 5 2 3 9 2 7 9 8 9 10 10 7
3 4 4 5 2 2 2 1 2 6 7 5 4 4 3 2 2 2 2 0 9 4 1 5 4 5 6 4 4 5 6 13 8 2 8 8 10 4 7 6 4 5 7 8 5
2 2 4 6 6 2 2 3 3 6 2 5 5 0 2 3 4 2 4 2 7 6 3 6 4 8 11 14 3 10 9 8 13 8 9 11 18 10 8 9 6 5 6 8 5
5 3 2 2 4 4 1 2 3 5 7 10 3 8 4 4 4 4 4 5 2 4 2 1 6 4 11 12 10 14 14 11 12 18 11 13 12 16 7 6 8 9 6 6 4
4 2 3 3 1 2 3 3 5 4 5 4 5 10 3 2 4 4 9 2 3 3 2 2 4 2 10 9 8 10 14 11 12 11 11 7 9 4 1 2 5 10 8 5 1
7 5 3 4 2 1 2 2 4 6 2 9 6 6 3 4 13 16 15 17 13 7 10 5 6 6 14 11 12 15 9 12 8 3 4 8 6 4 0 6 8 9 10 9 8
Wind_Direction
351 348 341 334 325 321 316 312 308 308 306 303 300 300 291 273 257 246 239 213 206 200 208 330 13 13 356 12 38 41 14 19 198 197 274 234 174 143 155 148 164 163 140 190 171
347 343 338 333 328 323 318 314 309 303 300 298 299 303 301 290 264 243 223 210 201 202 223 250 42 9 351 22 32 27 354 294 210 211 264 251 205 181 178 171 190 160 188 167 169
348 340 334 328 324 320 315 312 309 301 295 294 297 303 308 313 287 205 206 212 205 201 200 170 341 27 25 349 11 133 248 278 286 252 238 236 226 195 193 210 227 198 164 161 167
356 346 338 329 321 317 312 311 309 303 295 290 292 299 309 306 159 169 202 198 200 199 205 203 160 84 355 330 336 298 267 273 297 239 199 246 212 208 213 241 286 204 174 167 173
358 350 342 334 325 317 311 308 306 302 294 286 285 293 311 263 227 175 198 189 194 201 204 200 167 159 344 318 323 232 308 317 305 260 245 235 244 253 226 230 228 169 172 173 178
2 354 344 337 329 319 309 304 302 300 292 280 276 282 291 266 183 202 139 172 191 199 204 193 163 104 286 282 297 308 296 301 298 285 233 233 274 228 222 187 182 175 175 179 183
360 355 348 341 331 320 308 301 297 296 287 273 267 275 269 227 175 145 136 156 189 200 201 199 194 209 290 299 316 293 314 340 37 348 328 297 259 237 209 176 174 178 179 184 188
357 354 350 342 333 321 311 298 293 295 280 262 259 267 250 205 187 170 160 152 180 185 197 179 175 228 237 296 306 322 316 343 15 9 19 277 283 266 202 175 182 182 184 192 197
354 351 348 342 335 321 315 293 291 291 269 246 246 241 266 202 192 188 178 170 191 185 173 166 176 163 205 349 299 25 306 316 323 9 3 300 289 339 181 186 191 193 193 196 201
351 349 347 343 337 320 310 285 291 276 250 232 238 281 227 143 183 187 182 150 155 157 153 182 140 179 119 255 280 321 325 306 283 319 311 299 271 283 219 204 202 200 200 203 208
348 346 346 342 337 318 297 259 285 293 233 219 167 118 102 126 154 183 189 167 115 141 178 131 215 222 223 151 129 296 288 289 281 299 299 313 296 298 223 217 210 204 205 208 214
345 342 342 340 334 310 247 204 227 294 304 255 246 244 203 125 132 185 186 166 164 162 140 181 239 210 137 161 212 267 294 291 299 169 316 311 301 298 205 222 216 210 207 213 210
343 339 340 336 334 296 179 186 247 299 271 283 247 243 235 235 230 198 178 163 150 163 175 221 114 141 188 185 256 267 260 284 291 324 280 299 282 283 270 238 233 228 221 218 211
340 335 335 331 347 137 136 191 289 212 302 135 191 187 178 169 203 197 188 174 151 213 171 249 224 228 222 247 235 280 231 258 278 310 314 2 304 303 319 286 233 236 220 218 213
337 331 327 314 270 174 164 325 143 168 152 106 114 149 163 185 132 179 184 198 206 176 197 223 208 186 216 245 187 239 216 292 287 262 288 205 270 278 313 282 275 239 223 216 209
335 330 321 304 220 180 173 142 152 237 98 113 123 164 165 209 140 116 168 175 174 173 237 265 236 212 236 172 193 82 280 199 108 213 258 330 273 285 287 286 321 293 242 212 203
335 332 326 239 170 165 155 151 239 226 322 67 84 176 197 182 166 157 170 189 191 201 244 262 245 234 216 243 196 198 257 273 235 207 283 100 259 258 286 291 287 297 280 210 200
338 343 20 156 155 160 155 193 146 46 5 2 347 152 193 168 196 147 159 195 208 190 218 295 289 183 177 215 220 198 219 240 268 244 307 141 255 262 292 301 300 298 231 193 191
343 60 89 150 152 159 168 171 53 189 320 325 340 187 190 179 200 177 199 217 219 201 215 220 255 232 216 170 199 167 206 279 243 141 269 267 271 283 281 322 348 351 162 177 187
357 105 63 149 136 146 93 234 254 232 303 277 352 276 215 159 184 194 181 138 236 200 219 234 276 281 85 166 84 234 137 177 210 248 268 260 270 259 305 333 338 342 140 185 191
119 120 112 133 125 97 154 224 280 284 259 275 333 309 307 292 211 189 181 113 324 33 202 192 232 224 294 208 200 155 207 204 270 262 257 283 281 231 265 319 313 315 334 298 212
84 106 145 119 76 40 103 266 324 327 6 354 318 309 314 344 254 235 198 36 350 204 159 200 238 256 253 206 247 224 207 194 242 218 243 292 273 226 270 300 290 303 321 327 263
56 85 138 32 120 84 351 9 322 352 9 3 30 14 9 23 277 32 37 117 16 35 135 174 207 286 277 181 134 235 231 233 236 192 212 248 264 180 277 272 276 314 345 343 321
40 102 46 64 70 66 20 12 10 12 55 351 9 69 18 37 31 13 16 19 337 19 4 188 205 248 269 291 345 283 273 226 232 235 236 230 260 244 253 257 245 288 328 341 335
43 69 48 57 55 72 36 360 357 10 5 20 66 34 4 354 353 11 9 333 342 355 66 354 272 234 264 277 284 272 269 261 223 250 238 251 225 253 242 302 311 308 305 317 297
72 72 61 62 32 131 14 40 20 351 354 26 27 350 5 59 39 322 354 311 293 331 346 344 275 278 281 276 267 284 283 266 239 242 251 278 255 256 61 22 337 337 337 332 233
50 58 83 11 47 130 62 24 30 339 109 56 358 348 346 6 313 288 268 266 265 292 291 285 277 261 268 281 298 274 268 258 241 201 239 234 268 334 276 57 28 357 4 4 9
Height
1539 1538 1537 1536 1534 1533 1532 1531 1530 1529 1529 1528 1528 1527 1526 1526 1525 1526 1526 1529 1530 1530 1531 1532 1532 1532 1531 1531 1531 1531 1532 1536 1534 1535 1527 1526 1525 1527 1528 1529 1531 1531 1532 1532 1533
1538 1537 1535 1534 1533 1532 1531 1530 1528 1528 1527 1527 1526 1526 1525 1524 1523 1522 1526 1527 1529 1530 1531 1532 1532 1531 1531 1531 1532 1531 1534 1531 1528 1528 1526 1525 1525 1525 1527 1528 1529 1530 1530 1531 1533
1537 1536 1534 1533 1532 1530 1529 1528 1527 1526 1526 1525 1525 1524 1524 1523 1522 1521 1522 1525 1528 1530 1531 1532 1532 1532 1531 1531 1532 1532 1532 1527 1523 1524 1524 1525 1524 1524 1524 1526 1525 1526 1528 1531 1533
1537 1535 1533 1531 1530 1529 1527 1526 1525 1524 1524 1524 1523 1523 1522 1522 1523 1520 1520 1523 1526 1528 1531 1532 1532 1533 1532 1531 1531 1531 1526 1526 1523 1522 1522 1524 1523 1522 1523 1522 1523 1524 1526 1529 1533
1536 1534 1532 1530 1528 1527 1525 1524 1523 1523 1522 1522 1522 1522 1521 1521 1520 1520 1519 1521 1525 1528 1530 1532 1533 1533 1532 1532 1532 1530 1526 1524 1521 1521 1521 1522 1522 1522 1520 1521 1522 1524 1526 1529 1533
1535 1533 1531 1529 1526 1525 1523 1522 1521 1521 1520 1520 1520 1520 1521 1521 1518 1519 1519 1521 1525 1527 1530 1531 1532 1533 1533 1533 1532 1529 1526 1522 1519 1520 1519 1519 1520 1521 1518 1519 1520 1523 1525 1529 1531
1535 1532 1529 1527 1525 1522 1521 1520 1519 1519 1519 1518 1519 1519 1519 1518 1518 1519 1519 1521 1524 1527 1529 1531 1532 1534 1533 1531 1530 1528 1524 1519 1520 1521 1518 1517 1518 1515 1515 1517 1519 1522 1525 1529 1531
1534 1531 1528 1525 1522 1520 1519 1518 1517 1517 1517 1517 1517 1518 1516 1515 1517 1519 1520 1522 1524 1526 1529 1531 1532 1533 1533 1532 1530 1527 1525 1528 1520 1520 1520 1520 1518 1511 1512 1515 1518 1521 1524 1527 1529
1533 1529 1526 1523 1520 1518 1517 1516 1515 1515 1515 1516 1517 1517 1514 1514 1517 1518 1521 1522 1523 1526 1528 1530 1531 1532 1532 1530 1529 1530 1532 1531 1524 1521 1521 1521 1515 1511 1512 1513 1517 1519 1521 1524 1527
1531 1528 1524 1521 1518 1516 1515 1514 1514 1515 1515 1515 1516 1519 1514 1514 1515 1517 1520 1522 1523 1525 1529 1530 1530 1530 1531 1530 1541 1539 1538 1532 1531 1522 1518 1518 1512 1507 1510 1511 1512 1516 1519 1522 1523
1530 1526 1522 1519 1516 1514 1514 1514 1517 1516 1513 1512 1513 1512 1512 1513 1515 1517 1519 1522 1523 1525 1525 1528 1528 1527 1525 1532 1533 1536 1537 1536 1522 1522 1522 1513 1511 1501 1504 1507 1509 1510 1514 1516 1517
1527 1524 1520 1517 1514 1512 1512 1513 1513 1514 1512 1509 1510 1511 1512 1513 1515 1515 1519 1523 1524 1524 1526 1528 1526 1527 1529 1532 1534 1535 1536 1529 1519 1520 1520 1509 1505 1495 1499 1498 1498 1501 1506 1509 1514
1525 1521 1518 1514 1511 1511 1511 1512 1512 1512 1512 1508 1507 1508 1510 1513 1514 1514 1517 1519 1522 1525 1526 1528 1526 1524 1528 1531 1533 1531 1534 1531 1530 1517 1513 1512 1504 1495 1487 1491 1493 1495 1498 1504 1507
1522 1517 1515 1512 1513 1511 1511 1511 1511 1511 1512 1507 1507 1507 1508 1510 1512 1512 1515 1520 1521 1522 1526 1525 1523 1525 1527 1529 1530 1534 1524 1526 1527 1529 1527 1514 1519 1492 1489 1487 1488 1487 1491 1495 1500
1519 1514 1511 1510 1510 1511 1512 1511 1510 1512 1521 1506 1507 1507 1508 1510 1510 1511 1514 1517 1518 1521 1524 1522 1521 1523 1523 1521 1525 1524 1523 1523 1523 1525 1525 1518 1521 1492 1492 1484 1480 1481 1483 1486 1491
1515 1510 1507 1506 1506 1509 1510 1510 1512 1515 1522 1505 1505 1506 1508 1508 1509 1511 1514 1517 1518 1520 1521 1518 1519 1518 1516 1519 1520 1521 1521 1523 1526 1524 1528 1518 1518 1493 1487 1481 1477 1478 1479 1483 1487
1512 1507 1504 1504 1506 1508 1510 1511 1514 1515 1505 1508 1505 1505 1505 1507 1508 1509 1512 1515 1518 1528 1523 1516 1510 1510 1514 1518 1520 1520 1521 1529 1530 1529 1527 1523 1523 1495 1479 1477 1476 1472 1475 1477 1482
1508 1505 1503 1503 1505 1508 1510 1511 1520 1511 1508 1504 1504 1505 1505 1504 1506 1508 1511 1515 1516 1517 1521 1521 1519 1507 1506 1506 1509 1514 1512 1523 1543 1534 1522 1525 1514 1488 1476 1475 1472 1468 1469 1472 1477
1506 1504 1504 1505 1506 1508 1511 1516 1513 1512 1508 1506 1503 1504 1504 1502 1504 1506 1508 1507 1505 1510 1520 1520 1515 1501 1502 1501 1503 1513 1517 1505 1515 1535 1529 1508 1498 1479 1471 1469 1469 1467 1468 1470 1473
1504 1504 1504 1506 1507 1509 1511 1518 1513 1511 1508 1507 1507 1503 1505 1502 1504 1505 1509 1504 1504 1505 1506 1507 1517 1496 1498 1501 1504 1503 1504 1514 1517 1531 1532 1510 1513 1494 1477 1470 1467 1466 1468 1469 1472
1503 1505 1507 1507 1509 1510 1512 1514 1512 1509 1509 1508 1506 1505 1503 1502 1502 1504 1505 1505 1504 1503 1505 1506 1511 1502 1497 1497 1496 1506 1506 1509 1509 1509 1514 1518 1500 1477 1477 1473 1472 1469 1468 1470 1471
1503 1505 1508 1508 1511 1515 1513 1515 1514 1509 1509 1507 1507 1506 1505 1504 1503 1503 1503 1504 1505 1503 1505 1504 1505 1508 1497 1490 1491 1491 1491 1496 1506 1516 1513 1508 1496 1475 1474 1473 1472 1470 1467 1466 1467
1505 1507 1509 1508 1510 1514 1515 1514 1514 1512 1511 1509 1508 1509 1508 1507 1508 1505 1505 1506 1505 1504 1503 1504 1507 1509 1494 1490 1493 1493 1489 1487 1488 1496 1509 1504 1489 1472 1472 1470 1468 1467 1465 1464 1464
1508 1508 1511 1511 1515 1516 1517 1517 1514 1514 1513 1513 1512 1510 1508 1509 1510 1510 1508 1507 1506 1506 1505 1504 1502 1502 1506 1494 1497 1496 1487 1491 1488 1489 1486 1488 1475 1468 1467 1467 1466 1464 1463 1463 1462
1510 1517 1518 1517 1518 1519 1520 1520 1518 1516 1515 1515 1513 1515 1515 1513 1510 1511 1509 1507 1506 1506 1505 1505 1505 1505 1496 1494 1493 1491 1488 1484 1489 1479 1486 1468 1478 1463 1462 1468 1468 1466 1463 1463 1463
1515 1518 1519 1521 1522 1521 1523 1524 1522 1520 1520 1517 1518 1517 1516 1516 1521 1520 1518 1513 1510 1506 1505 1505 1504 1505 1500 1489 1489 1490 1482 1480 1479 1478 1481 1477 1474 1466 1466 1467 1469 1468 1465 1464 1462
1518 1519 1519 1523 1523 1521 1526 1526 1525 1524 1522 1522 1522 1519 1517 1520 1520 1518 1518 1514 1513 1513 1507 1508 1502 1503 1500 1490 1489 1488 1477 1474 1470 1471 1473 1477 1467 1468 1468 1468 1470 1471 1470 1468 1466